Regional Weather Roundup
Issued by NWS

Home | Current Version | Previous Version | Text Only | Print | Product List | Glossary Off
Versions: 1 2 3 4 5 6 7 8 9 10 11 12 13 14 15 16 17 18 19 20 21 22 23 24 25 26 27 28 29 30 31 32 33 34 35 36 37 38 39 40 41 42 43 44 45 46 47 48 49 50

000
ASUS43 KBIS 262110
RWRND

NORTH DAKOTA REGIONAL WEATHER ROUNDUP
NATIONAL WEATHER SERVICE BISMARCK ND
400 PM CDT SUN APR 26 2015

NOTE: "FAIR" INDICATES FEW OR NO CLOUDS BELOW 12,000 FEET WITH NO
SIGNIFICANT WEATHER AND/OR OBSTRUCTIONS TO VISIBILITY.


NDZ001>003-009>011-017-262200-
NORTHWEST NORTH DAKOTA

CITY           SKY/WX    TMP DP  RH WIND       PRES   REMARKS
WILLISTON      MOSUNNY   54  35  48 VRB6      30.13R
MINOT          LGT RAIN  48  43  82 SE5       30.12R
MINOT AFB      CLOUDY    52  48  85 S8        30.10S
$$

NDZ018>021-031>035-040>046-262200-
SOUTHWEST NORTH DAKOTA

CITY           SKY/WX    TMP DP  RH WIND       PRES   REMARKS
BISMARCK       CLOUDY    59  43  55 CALM      30.09F
DICKINSON      CLOUDY    45  41  86 NE8       30.09S
GARRISON         N/A     48  44  86 NW8       30.12R
HETTINGER ARPT CLOUDY    47  45  93 NE8       30.09R FOG
$$

NDZ004>008-012>016-024-026-027-054-262200-
NORTHEAST NORTH DAKOTA

CITY           SKY/WX    TMP DP  RH WIND       PRES   REMARKS
GRAND FORKS    PTSUNNY   67  25  20 SW3       30.10F
GRND FRKS AFB  SUNNY     67  26  22 S8        30.10F
DEVILS LAKE    PTSUNNY   61  43  51 W8        30.10S
$$

NDZ022-023-025-028>030-036>039-047>053-262200-
SOUTHEAST NORTH DAKOTA

CITY           SKY/WX    TMP DP  RH WIND       PRES   REMARKS
FARGO          SUNNY     66  25  21 VRB5      30.10F
JAMESTOWN      SUNNY     66  34  30 E8        30.08S
$$



USA.gov is the U.S. government's official web portal to all federal, state and local government web resources and services.